Location: Newark
(51.0500°N, 12.4500°E)
Time: 08:08:15
(UTC+00:00)

Tiros 1 - Pass Details

Date: 21 February 2020
Orbit: 630 x 664 km, 48.4° (Epoch: 05 April)

Event Time Altitude Azimuth Distance (km) Brightness Sun altitude
Rises 03:56:42 0° 256° (WSW) 2,919 - -22.0°
Reaches altitude 10° 03:59:02 10° 253° (WSW) 2,010 - -21.6°
Exits shadow 04:02:42 50° 222° (SW) 804 7.3 -21.1°
Maximum altitude 04:03:36 61° 173° (S) 714 7.3 -20.9°
Drops below altitude 10° 04:08:09 10° 94° (E) 2,009 10.8 -20.2°
Sets 04:10:29 0° 91° (E) 2,919 12.1 -19.9°
